This demonstration page uses our WeatherBlox Daily Observations layout. Learn more.

Left ArrowRight Arrow

38.88101, -77.10428

Hourly Observations for September 22, 2022

Temp ( °F °C ) Dew Point ( °F °C ) Humidity (%) Winds ( mph kmh ) Pressure ( in mb ) Visibility ( mi km ) Precip ( " mm )
12:52 am 00:52 Mostly Clear 74 23.3 66 18.9 76 76 SSW 9 15 29.82 1010 10 16 0.00 0.00
1:52 am 01:52 Mostly Cloudy 74 23.3 63 17.2 69 69 S 9 15 29.79 1009 10 16 0.00 0.00
2:52 am 02:52 Cloudy 73 22.8 64 17.8 73 73 SSW 7 11 29.77 1008 10 16 0.00 0.00
3:52 am 03:52 Cloudy 74 23.3 64 17.8 71 71 S 7 11 29.74 1007 10 16 0.00 0.00
4:52 am 04:52 Mostly Cloudy 74 23.3 64 17.8 71 71 W 3 6 29.73 1007 10 16 0.00 0.00
5:52 am 05:52 Mostly Cloudy 72 22.2 65 18.3 79 79 SSW 8 13 29.71 1006 9 14 0.00 0.00
6:52 am 06:52 Partly Cloudy 72 22.2 65 18.3 79 79 SSW 8 13 29.69 1005 10 16 0.00 0.00
7:52 am 07:52 Mostly Sunny 73 22.8 65 18.3 76 76 S 8 13 29.67 1005 10 16 0.00 0.00
8:52 am 08:52 Mostly Cloudy 76 24.4 66 18.9 71 71 S 10 17 29.67 1005 10 16 0.00 0.00
9:52 am 09:52 Mostly Cloudy 79 26.1 66 18.9 65 65 SW 5 7 29.68 1005 10 16 0.00 0.00
10:52 am 10:52 Mostly Cloudy 80 26.7 66 18.9 62 62 WNW 8 13 29.67 1005 10 16 0.01 0.13
11:52 am 11:52 Cloudy with Drizzle 77 25 68 20 74 74 WNW 7 11 29.68 1005 8 13 0.01 0.13
12:35 pm 12:35 Cloudy with Light Rain 73 22.8 67 19.4 81 81 W 9 15 29.69 1005 6 10 0.03 0.76
12:52 pm 12:52 Cloudy with Light Rain 74 23.3 69 20.6 85 85 NW 9 15 29.69 1005 9 14 0.04 1.02
1:52 pm 13:52 Cloudy 73 22.8 64 17.8 73 73 NNW 9 15 29.70 1006 10 16 0.01 0.13
2:52 pm 14:52 Mostly Cloudy 74 23.3 62 16.7 66 66 NNW 10 17 29.69 1005 10 16 0.00 0.00
3:52 pm 15:52 Mostly Cloudy 78 25.6 56 13.3 47 47 NW 17 28 29.70 1006 10 16 0.00 0.00
4:52 pm 16:52 Partly Cloudy 78 25.6 49 9.4 36 36 NW 18 30 29.70 1006 10 16 0.01 0.13
5:52 pm 17:52 Partly Cloudy 76 24.4 47 8.3 36 36 NW 16 26 29.71 1006 10 16 0.00 0.00
6:52 pm 18:52 Partly Cloudy 71 21.7 46 7.8 41 41 NW 18 30 29.76 1008 10 16 0.00 0.00
7:52 pm 19:52 Cloudy 70 21.1 45 7.2 41 41 NW 22 35 29.80 1009 10 16 0.00 0.00
8:52 pm 20:52 Mostly Cloudy 67 19.4 43 6.1 42 42 NNW 23 37 29.84 1011 10 16 0.00 0.00
9:52 pm 21:52 Partly Cloudy 64 17.8 43 6.1 46 46 NW 17 28 29.87 1012 10 16 0.00 0.00
10:52 pm 22:52 Mostly Cloudy 63 17.2 44 6.7 50 50 NNW 18 30 29.90 1013 10 16 0.00 0.00
11:52 pm 23:52 Partly Cloudy 62 16.7 45 7.2 53 53 NW 18 30 29.93 1013 10 16 0.00 0.00

Powered by AerisWeather